User: anonymous   Login
Location: Caltech
(34.1382°N, 118.1253°W)
Time: 13:44:17
(UTC-08:00)
Language:

NOAA 19 - Orbit

View from above orbital plane
View from above orbital plane
View from above satellite
View from above satellite

Ground track
Ground track

The orbit data is extracted from the following two-line orbital elements,

1 33591U 09005A   16341.47892609  .00000129  00000-0  94836-4 0  9991
2 33591  99.0652 299.8642 0014976  93.6406 266.6477 14.12132998403453
Epoch (UTC): 06 December 2016 11:29:39
Eccentricity: 0.0014976
inclination: 99.0652°
perigee height: 841 km
apogee height: 863 km
right ascension of ascending node: 299.8642°
argument of perigee: 93.6406°
revolutions per day: 14.12132998
mean anomaly at epoch: 266.6477°
orbit number at epoch: 40345

The dashed part of the orbit path shows where the satellite is in the earth's shadow,  

DLR